Location: Silverado Station
(33.7431°N, 117.6584°W)
Time: 03:54:28
(UTC+00:00)

Daily predictions for brighter satellites

Satellite Brightness Start Highest point End
(mag) Time Altitude Azimuth Time Altitude Azimuth Time Altitude Azimuth
Cosmos 1758 3.9 01:39:29 10° SSW 01:43:26 63° W 01:47:22 10° N
ATLAS 5 CENTAUR R/B 2.8 01:39:35 10° SW 01:43:29 41° NW 01:47:45 10° NNE
H-2A R/B 3.1 01:40:22 10° S 01:44:11 72° WSW 01:48:04 10° NNW
OAO 3 Rocket 3.4 01:39:20 10° WSW 01:44:14 68° SSE 01:49:10 10° E
Cosmos 2058 Rocket 3.9 01:42:27 10° SSE 01:46:10 28° E 01:49:53 10° NNE
Cosmos 1626 2.1 01:47:00 10° N 01:50:44 90° E 01:54:27 10° S
Cosmos 1726 3.1 01:49:05 10° SSE 01:52:07 25° E 01:55:10 10° NE
Cosmos 2228 3.0 01:49:29 10° S 01:53:49 62° E 01:58:08 10° NNE
Cosmos 1356 4.3 01:54:54 10° SSE 01:57:49 26° E 02:00:45 10° NE
CSL-04 Rocket 4.1 01:52:41 10° SE 01:57:53 42° ENE 02:03:04 10° N
IUS-18 SRM-1 4.3 01:49:35 10° WSW 01:59:03 30° S 02:02:15 10° ESE
CZ-4C R/B 3.1 01:53:43 10° NNW 02:01:11 61° ENE 02:09:25 10° SE
Cosmos 1939 Rocket 4.3 01:59:05 10° ESE 02:01:44 18° ENE 02:04:24 10° NNE
ASTRO E2 3.8 02:01:22 10° W 02:05:05 37° SSW 02:08:48 10° SE
Cosmos 921 Rocket 3.0 02:01:23 10° S 02:05:51 70° ESE 02:10:20 10° NNE
CZ-4 R/B 4.3 02:07:20 10° SSE 02:11:26 76° ENE 02:15:33 10° N
COSMO-SKYMED 1 3.2 02:07:40 10° N 02:11:57 60° WNW 02:16:12 10° SSW
USA 234 4.1 02:07:07 12° ENE 02:12:04 28° SE 02:17:29 10° S
Cosmos 292 Rocket 3.8 02:10:19 10° S 02:14:55 53° ESE 02:19:32 10° NNE
Atlas Centaur 2 3.6 02:09:30 10° W 02:15:01 31° SSW 02:19:31 10° SE
Lacrosse 5 rocket 2.7 02:12:18 10° N 02:15:09 19° NE 02:16:08 18° ENE
Envisat 3.3 02:11:36 10° S 02:16:40 73° WSW 02:21:45 10° NNW
CZ-4 R/B 1.4 02:15:01 10° SSE 02:19:06 89° NE 02:23:17 10° NNW
NOSS 3-2 (A) 4.5 02:16:50 10° SSE 02:20:43 19° ESE 02:21:15 19° E
Cosmos 1242 Rocket 3.1 02:17:40 10° NNE 02:21:04 34° ENE 02:24:01 12° SE
BREEZE-M DEB (TANK) 3.4 02:13:40 10° NW 02:23:11 74° NE 02:25:08 23° ESE
Cosmos 2239 Rocket 4.4 02:18:13 10° N 02:24:23 89° ENE 02:30:31 10° S
Cosmos 1825 Rocket 4.1 02:20:25 10° NNW 02:24:44 61° W 02:29:03 10° S
Cosmos 1908 3.4 02:21:41 10° SSE 02:25:26 47° E 02:29:12 10° NNE
Cosmos 1953 Rocket 3.4 02:21:09 10° N 02:25:33 86° E 02:29:51 10° S
USA 116 3.9 02:22:50 10° N 02:25:56 57° WNW 02:29:13 10° SSW
Cosmos 1727 Rocket 4.4 02:23:47 10° SSE 02:29:20 36° E 02:34:53 10° NNE
Cosmos 1821 Rocket 4.2 02:24:16 10° N 02:30:20 72° W 02:36:27 10° S
Cosmos 1605 Rocket 4.2 02:24:34 10° N 02:30:25 43° E 02:36:10 10° SSE
Cosmos 1328 3.9 02:26:56 10° N 02:30:47 47° E 02:34:36 10° SSE
COSMOS 2406 3.9 02:26:30 10° N 02:31:36 32° ENE 02:33:32 26° E
DMSP B5D1-3 4.4 02:27:15 10° NNE 02:32:24 83° ESE 02:37:33 10° SSW
YAOGAN 6 3.4 02:30:52 10° S 02:34:28 54° W 02:38:05 10° NNW
CSL-04 Debris 4.2 02:31:43 10° S 02:37:08 81° WSW 02:42:37 10° NNW
Meteor 1-11 4.4 02:34:45 10° N 02:40:21 51° E 02:45:58 10° SSE
EO 1 Delta rocket 3.7 02:36:11 10° SSE 02:41:02 84° ENE 02:45:39 10° N
BREEZE M DEB (TANK) 4.2 02:38:50 10° NNW 02:41:31 22° NE 02:41:39 22° NE
Abrixas rocket 1.8 02:40:56 10° SW 02:43:59 87° SE 02:44:03 84° E
Cosmos 1535 Rocket 4.4 02:38:52 10° N 02:45:05 87° W 02:51:13 10° S
Cosmos 1934 Rocket 4.0 02:40:04 10° N 02:46:25 86° W 02:52:47 10° S
Cosmos 1354 Rocket 4.4 02:45:06 10° NNW 02:50:17 64° WSW 02:55:26 10° S
Shenzhou-11 Module 4.4 02:50:27 10° NW 02:51:54 14° NNW 02:51:54 14° NNW
Meteosat 1 Rocket2 4.4 02:54:04 10° SW 02:56:28 22° S 02:56:28 22° S
Ariane Rocket 2.8 02:54:26 12° SSE 02:59:13 77° ENE 03:04:19 10° N
YAOGAN 1 4.0 02:55:38 10° SSW 02:59:40 39° W 03:03:44 10° NNW
Cosmos 839 Rocket 4.3 02:54:13 10° NNW 03:00:25 55° ENE 03:02:47 39° ESE
CZ-2D R/B 3.6 02:59:12 12° S 03:02:43 62° W 03:06:32 10° NNW
SL-4 R/B 3.0 03:03:05 10° NW 03:05:27 33° NNW 03:05:27 33° NNW
Cosmos 2278 Rocket 2.2 03:04:04 10° SSW 03:09:44 79° WNW 03:15:26 10° NNE
OAO 2 Rocket 3.3 03:08:25 10° W 03:13:44 79° N 03:14:11 72° NE
H-2A R/B 4.0 03:22:49 17° NNE 03:22:49 17° NNE 03:24:13 10° N
Cosmos 1153 Rocket 4.3 03:15:13 10° N 03:21:21 74° E 03:22:28 59° SE
Cosmos 1777 Rocket 4.3 03:21:01 10° NNW 03:25:05 54° N 03:25:05 54° N
OAO 3 Rocket 3.5 03:22:52 10° W 03:27:14 66° WNW 03:27:14 66° WNW
ADEOS Rocket 3.3 03:22:16 10° NNE 03:29:57 69° ESE 03:37:02 10° S
USA 238 DEB 3.8 03:36:35 10° SW 03:43:12 71° WNW 03:45:13 47° N
USA 238 3.7 03:36:41 10° SW 03:43:18 72° WNW 03:45:14 48° N
Lacrosse 5 4.4 03:43:02 10° N 03:43:09 10° N 03:43:09 10° N
Lacrosse 5 rocket 3.9 03:50:41 10° NW 03:51:49 18° WNW 03:51:49 18° WNW
USA 234 3.4 03:54:31 61° N 03:55:16 66° NW 04:01:43 10° WSW
Cosmos 1833 Rocket 4.3 03:57:37 10° NNW 04:00:05 27° NNW 04:00:05 27° NNW
Cosmos 2082 Rocket 4.4 04:13:53 10° NNW 04:15:17 18° NNW 04:15:17 18° NNW
CZ-3B R/B 4.4 04:39:40 10° W 05:00:29 56° SSW 05:00:41 56° SSW
Cosmos 2219 Rocket 3.9 10:56:01 29° E 10:56:01 29° E 11:00:03 10° NE
COSMOS 2455 4.3 10:58:34 32° NE 10:58:34 32° NE 11:01:42 10° NNE
COSMOS 2428 3.9 11:06:34 38° E 11:06:34 38° E 11:11:18 10° NE
ATLAS 2AS CENTAUR R/B 4.1 11:06:01 23° SSE 11:10:12 39° ESE 11:17:31 10° NE
Cosmos 2360 Rocket 4.1 11:28:55 18° N 11:28:55 18° N 11:30:28 10° N
Cosmos 1709 Rocket 4.1 11:26:57 70° SE 11:27:26 74° E 11:33:43 10° N
IDEFIX/ARIANE 42P 3.2 11:33:04 10° NNE 11:36:51 49° NNE 11:36:51 49° NNE
Aureole 1 Rocket 4.2 11:35:16 34° S 11:38:38 75° ESE 11:44:30 10° NNE
CZ-2C R/B 3.7 11:42:58 10° NNE 11:47:54 42° E 11:52:45 10° S
H-2A R/B 3.3 11:47:53 10° NNE 11:50:48 45° NNE 11:50:48 45° NNE
Cosmos 1844 Rocket 2.6 11:50:15 36° NNW 11:52:40 84° ENE 11:58:13 10° SSE
